Weather History for KFBL - August, 2014

Change the Weather History Date:

Sunday, August 17, 2014

  Actual Average Record
Temperature  
Mean Temperature 78 °F -  
Max Temperature 89 °F 82 °F 101 °F (1988)
Min Temperature 66 °F 58 °F 45 °F (1981)
Cooling Degree Days 12    
Growing Degree Days 28 (Base 50)    
Moisture  
Dew Point 64 °F    
Average Humidity 70    
Maximum Humidity 88    
Minimum Humidity 40    
Precipitation  
Precipitation 0.20 in - - ()
Sea Level Pressure  
Sea Level Pressure 29.92 in    
Wind  
Wind Speed 2 mph (SE)    
Max Wind Speed 13 mph    
Max Gust Speed 26 mph    
Visibility 7 miles    
Events Rain , Thunderstorm    
Averages and records for this station are not official NWS values.
T = Trace of Precipitation, MM = Missing Value Source: NWS Daily Summary

Daily Weather History Graph

Daily Weather History Graph

Search for Another Location

Airport or City:

Trip Planner

Search our weather history database for the weather conditions in past years. The results will help you decide how hot, cold, wet, or windy it might be!

Date:

Astronomy

Aug. 17, 2014 Rise Set
Actual Time 6:18 AM CDT 8:14 PM CDT
Civil Twilight 5:47 AM CDT 8:46 PM CDT
Nautical Twilight 5:09 AM CDT 9:24 PM CDT
Astronomical Twilight 4:27 AM CDT 10:06 PM CDT
Moon No Moon Rise 2:23 PM CDT (8/17)
Length of Visible Light 14h 58m
Length of Day
13h 56m
Waning Gibbous, 48% of the Moon is Illuminated
Aug 17
Waning Gibbous
Aug 25
New
Sep 2
First Quarter
Sep 8
Full
Sep 15
Last Quarter

Hourly Weather History & Observations

Time (CDT) Temp. Heat Index Dew Point Humidity Pressure Visibility Wind Dir Wind Speed Gust Speed Precip Events Conditions
12:14 AM 69.8 °F - 64.4 °F 83% 29.93 in 7.0 mi Calm Calm - N/A   Scattered Clouds
12:34 AM 69.8 °F - 64.4 °F 83% 29.93 in 7.0 mi Calm Calm - N/A   Scattered Clouds
12:54 AM 69.8 °F - 62.6 °F 78% 29.93 in 5.0 mi Calm Calm - N/A   Haze
1:14 AM 69.8 °F - 62.6 °F 78% 29.93 in 4.0 mi Calm Calm - N/A   Haze
1:34 AM 68.0 °F - 62.6 °F 83% 29.93 in 7.0 mi Calm Calm - N/A   Clear
2:14 AM 69.8 °F - 64.4 °F 83% 29.93 in 4.0 mi Calm Calm - N/A   Haze
2:34 AM 68.0 °F - 62.6 °F 83% 29.94 in 2.5 mi Calm Calm - N/A   Haze
2:54 AM 66.2 °F - 62.6 °F 88% 29.94 in 1.0 mi Calm Calm - N/A   Haze
3:14 AM 66.2 °F - 62.6 °F 88% 29.94 in 2.0 mi Calm Calm - N/A   Haze
3:34 AM 66.2 °F - 60.8 °F 83% 29.93 in 4.0 mi Calm Calm - N/A   Haze
3:54 AM 66.2 °F - 60.8 °F 83% 29.93 in 3.0 mi Calm Calm - N/A   Haze
4:14 AM 66.2 °F - 62.6 °F 88% 29.93 in 4.0 mi Calm Calm - N/A   Haze
4:34 AM 66.2 °F - 60.8 °F 83% 29.93 in 3.0 mi Calm Calm - N/A   Haze
4:54 AM 66.2 °F - 60.8 °F 83% 29.94 in 0.8 mi Calm Calm - N/A   Haze
5:14 AM 66.2 °F - 60.8 °F 83% 29.94 in 0.2 mi Calm Calm - N/A   Haze
5:34 AM 66.2 °F - 60.8 °F 83% 29.94 in 0.2 mi Calm Calm - N/A   Haze
5:54 AM 66.2 °F - 60.8 °F 83% 29.95 in 0.2 mi Calm Calm - N/A   Haze
6:14 AM 66.2 °F - 62.6 °F 88% 29.95 in 0.2 mi Calm Calm - N/A   Haze
6:34 AM 66.2 °F - 62.6 °F 88% 29.96 in 0.2 mi Calm Calm - N/A   Haze
6:54 AM 66.2 °F - 62.6 °F 88% 29.95 in 0.2 mi Calm Calm - N/A   Haze
7:14 AM 68.0 °F - 62.6 °F 83% 29.95 in 0.5 mi Calm Calm - N/A   Haze
7:34 AM 69.8 °F - 64.4 °F 83% 29.96 in 0.2 mi Calm Calm - N/A   Haze
7:53 AM 69.8 °F - 64.4 °F 83% 29.96 in 0.2 mi Calm Calm - N/A   Haze
8:14 AM 71.6 °F - 66.2 °F 83% 29.96 in 0.2 mi Calm Calm - N/A   Haze
8:34 AM 71.6 °F - 66.2 °F 83% 29.96 in 0.8 mi East 3.5 mph - N/A   Haze
8:53 AM 71.6 °F - 66.2 °F 83% 29.96 in 0.8 mi Calm Calm - N/A   Haze
9:14 AM 73.4 °F - 66.2 °F 78% 29.97 in 5.0 mi Calm Calm - N/A   Haze
9:34 AM 75.2 °F - 68.0 °F 78% 29.97 in 7.0 mi Calm Calm - N/A   Overcast
9:53 AM 75.2 °F - 66.2 °F 73% 29.97 in 10.0 mi Calm Calm - N/A   Mostly Cloudy
10:14 AM 78.8 °F - 66.2 °F 65% 29.98 in 7.0 mi Calm Calm - N/A   Scattered Clouds
10:34 AM 80.6 °F 82.7 °F 66.2 °F 61% 29.99 in 10.0 mi Calm Calm - N/A   Scattered Clouds
10:53 AM 82.4 °F 84.6 °F 66.2 °F 58% 29.98 in 10.0 mi Calm Calm - N/A   Scattered Clouds
11:14 AM 82.4 °F 84.6 °F 66.2 °F 58% 29.98 in 10.0 mi East 4.6 mph - N/A   Mostly Cloudy
11:34 AM 82.4 °F 84.6 °F 66.2 °F 58% 29.97 in 10.0 mi East 3.5 mph - N/A   Mostly Cloudy
11:54 AM 84.2 °F 85.6 °F 64.4 °F 51% 29.96 in 10.0 mi Calm Calm - N/A   Scattered Clouds
12:14 PM 84.2 °F 86.6 °F 66.2 °F 55% 29.96 in 10.0 mi ESE 4.6 mph - N/A   Mostly Cloudy
12:34 PM 86.0 °F 87.3 °F 64.4 °F 48% 29.95 in 10.0 mi SE 3.5 mph - N/A   Scattered Clouds
12:54 PM 86.0 °F 86.6 °F 62.6 °F 45% 29.95 in 10.0 mi SE 6.9 mph - N/A   Scattered Clouds
1:14 PM 87.8 °F 88.5 °F 62.6 °F 43% 29.93 in 10.0 mi SSE 9.2 mph - N/A   Scattered Clouds
1:34 PM 89.6 °F 90.1 °F 62.6 °F 40% 29.92 in 10.0 mi SSE 9.2 mph - N/A   Scattered Clouds
1:54 PM 89.6 °F 90.1 °F 62.6 °F 40% 29.92 in 10.0 mi SSW 8.1 mph - N/A   Scattered Clouds
2:14 PM 87.8 °F 88.5 °F 62.6 °F 43% 29.92 in 10.0 mi South 5.8 mph - N/A   Mostly Cloudy
2:34 PM 89.6 °F 90.1 °F 62.6 °F 40% 29.92 in 10.0 mi South 5.8 mph - N/A   Scattered Clouds
2:54 PM 89.6 °F 90.1 °F 62.6 °F 40% 29.91 in 10.0 mi SSW 9.2 mph - N/A   Scattered Clouds
3:14 PM 87.8 °F 88.5 °F 62.6 °F 43% 29.91 in 10.0 mi South 9.2 mph - N/A   Scattered Clouds
3:34 PM 89.6 °F 90.1 °F 62.6 °F 40% 29.90 in 10.0 mi SSW 9.2 mph - N/A   Scattered Clouds
3:54 PM 84.2 °F 87.3 °F 68.0 °F 58% 29.90 in 7.0 mi Calm Calm - N/A Rain Light Rain
4:14 PM 84.2 °F 87.3 °F 68.0 °F 58% 29.89 in 10.0 mi South 8.1 mph - N/A Rain Rain
4:34 PM 87.8 °F 90.4 °F 66.2 °F 49% 29.89 in 10.0 mi SSE 9.2 mph - N/A   Scattered Clouds
5:14 PM 84.2 °F 86.6 °F 66.2 °F 55% 29.89 in 10.0 mi SSE 9.2 mph - N/A   Scattered Clouds
5:34 PM 84.2 °F 86.6 °F 66.2 °F 55% 29.88 in 10.0 mi SSE 8.1 mph - N/A   Mostly Cloudy
5:54 PM 84.2 °F 86.6 °F 66.2 °F 55% 29.87 in 10.0 mi South 4.6 mph - N/A Thunderstorm Mostly Cloudy
6:13 PM 84.2 °F 87.3 °F 68.0 °F 58% 29.87 in 10.0 mi SSW 3.5 mph - N/A   Scattered Clouds
6:34 PM 84.2 °F 85.6 °F 64.4 °F 51% 29.86 in 10.0 mi WSW 4.6 mph - N/A   Scattered Clouds
6:54 PM 77.0 °F - 66.2 °F 69% 29.88 in 10.0 mi North 10.4 mph 18.4 mph N/A Thunderstorm Mostly Cloudy
7:14 PM 75.2 °F - 66.2 °F 73% 29.89 in 10.0 mi NNE 11.5 mph 26.5 mph N/A Thunderstorm Overcast
7:34 PM 75.2 °F - 66.2 °F 73% 29.89 in 10.0 mi East 5.8 mph - N/A Rain Light Rain
7:54 PM 73.4 °F - 66.2 °F 78% 29.89 in 7.0 mi East 6.9 mph - 0.01 in Rain , Thunderstorm Light Thunderstorms and Rain
8:14 PM 71.6 °F - 64.4 °F 78% 29.90 in 7.0 mi East 5.8 mph - 0.10 in Rain , Thunderstorm Light Thunderstorms and Rain
8:34 PM 71.6 °F - 64.4 °F 78% 29.89 in 10.0 mi East 8.1 mph - 0.13 in Rain Rain
8:54 PM 69.8 °F - 64.4 °F 83% 29.89 in 5.0 mi East 5.8 mph - 0.19 in Rain Light Rain
9:14 PM 69.8 °F - 64.4 °F 83% 29.89 in 10.0 mi East 9.2 mph - N/A Thunderstorm Mostly Cloudy
9:34 PM 69.8 °F - 62.6 °F 78% 29.89 in 10.0 mi ESE 6.9 mph - N/A   Mostly Cloudy
9:54 PM 69.8 °F - 62.6 °F 78% 29.89 in 10.0 mi ESE 10.4 mph - N/A   Mostly Cloudy
10:14 PM 69.8 °F - 62.6 °F 78% 29.89 in 10.0 mi ESE 9.2 mph - N/A   Overcast
10:34 PM 69.8 °F - 62.6 °F 78% 29.87 in 10.0 mi ESE 9.2 mph - N/A   Scattered Clouds
10:54 PM 71.6 °F - 64.4 °F 78% 29.87 in 10.0 mi SE 9.2 mph - N/A   Mostly Cloudy
11:14 PM 71.6 °F - 64.4 °F 78% 29.88 in 10.0 mi SE 12.7 mph - N/A   Overcast
11:34 PM 71.6 °F - 64.4 °F 78% 29.87 in 10.0 mi SE 10.4 mph - N/A   Mostly Cloudy
11:54 PM 73.4 °F - 64.4 °F 73% 29.86 in 10.0 mi SE 9.2 mph - N/A   Mostly Cloudy